This is the latest recevied weather packets stored in our database for station/object DM1HF-13. If no packets are shown the sender has not sent any weather packets the latest 10 day(s).
| Time | Temp. | Humidity | Pressure | Rain* | Wind** | Luminosity | Snow |
|---|---|---|---|---|---|---|---|
| 1778140216 | 7.78° C | 95% | 1013 hPa | 3.05 mm | - | 21 W/m² | - |
| 1778139916 | 7.78° C | 95% | 1013 hPa | 1.78 mm | - | 18 W/m² | - |
| 1778139616 | 7.78° C | 95% | 1012.9 hPa | 2.29 mm | - | 15 W/m² | - |
| 1778139316 | 7.78° C | 94% | 1012.9 hPa | 1.78 mm | - | 19 W/m² | - |
| 1778139016 | 7.78° C | 95% | 1012.8 hPa | 1.78 mm | - | 19 W/m² | - |
| 1778138716 | 7.78° C | 95% | 1012.7 hPa | 5.33 mm | - | 17 W/m² | - |
| 1778138416 | 7.78° C | 95% | 1012.7 hPa | 3.3 mm | - | 17 W/m² | - |
| 1778138116 | 7.78° C | 95% | 1012.6 hPa | 2.79 mm | - | 12 W/m² | - |
| 1778137816 | 7.78° C | 95% | 1012.5 hPa | 7.62 mm | - | 10 W/m² | - |
| 1778137516 | 7.78° C | 95% | 1012.5 hPa | 2.54 mm | - | 12 W/m² | - |
| 1778137216 | 8.33° C | 95% | 1012.4 hPa | 4.83 mm | - | 12 W/m² | - |
| 1778136916 | 8.33° C | 95% | 1012.3 hPa | 6.1 mm | - | 15 W/m² | - |
| 1778136616 | 8.33° C | 95% | 1012.2 hPa | 4.83 mm | - | 15 W/m² | - |
| 1778136316 | 8.33° C | 95% | 1012.2 hPa | 9.65 mm | - | 13 W/m² | - |
| 1778136016 | 8.33° C | 94% | 1012.1 hPa | 3.3 mm | - | 18 W/m² | - |
| 1778135716 | 8.33° C | 94% | 1012 hPa | 5.59 mm | - | 17 W/m² | - |
| 1778135416 | 8.33° C | 95% | 1011.8 hPa | 7.87 mm | - | 18 W/m² | - |
| 1778135116 | 8.33° C | 94% | 1011.8 hPa | 11.94 mm | - | 16 W/m² | - |
| 1778134816 | 8.33° C | 94% | 1011.7 hPa | 10.67 mm | - | 14 W/m² | - |
| 1778134516 | 8.33° C | 95% | 1011.7 hPa | 7.37 mm | - | 13 W/m² | - |
| 1778134216 | 8.33° C | 94% | 1011.6 hPa | 7.62 mm | - | 10 W/m² | - |
| 1778133916 | 8.33° C | 94% | 1011.5 hPa | 7.11 mm | - | 9 W/m² | - |
| 1778133616 | 8.33° C | 94% | 1011.5 hPa | 5.59 mm | - | 8 W/m² | - |
| 1778133316 | 8.89° C | 95% | 1011.4 hPa | 3.3 mm | - | 7 W/m² | - |
| 1778133016 | 8.89° C | 95% | 1011.3 hPa | 5.59 mm | - | 5 W/m² | - |
* Rain latest hour (hover to see other rain measurements)
** Current wind speed in m/s (hover to see current wind gust speed)